Regional Weather Roundup
Issued by NWS

Home | Current Version | Previous Version | Graphics & Text | Print | Product List | Glossary On
Versions: 1 2 3 4 5 6 7 8 9 10 11 12 13 14 15 16 17 18 19 20 21 22 23 24 25 26 27 28 29 30 31 32 33 34 35 36 37 38 39 40 41 42 43 44 45 46 47 48 49 50
000
ASUS43 KLSX 251807
RWRMO

WEATHER SUMMARY FOR MISSOURI
NATIONAL WEATHER SERVICE SPRINGFIELD MO
1200 PM CST SUN FEB 25 2018

NOTE: "FAIR" INDICATES FEW OR NO CLOUDS BELOW 12,000 FEET WITH NO
       SIGNIFICANT WEATHER AND/OR OBSTRUCTIONS TO VISIBILITY.
       CURRENT SKY AND/OR WEATHER CONDITIONS ARE NOT AVAILABLE FOR
       CHILLICOTHE AND FARMINGTON.

MOZ001>031-035>038-043-044-053-054-251900-
...NORTHERN AND WESTERN MISSOURI...

CITY           SKY/WX    TMP DP  RH WIND       PRES   REMARKS
KANSAS CTY INT MOSUNNY   44  26  49 SW13      30.07F
6HR MIN TEMP:  23; 6HR MAX TEMP:  44;

KANSAS C DTWN  SUNNY     48  23  37 SW13      30.08S
6HR MIN TEMP:  24; 6HR MAX TEMP:  48;

LEE`S SUMMIT   SUNNY     45  24  43 W12       30.08S
6HR MIN TEMP:  25; 6HR MAX TEMP:  45;

ST JOSEPH      MOSUNNY   44  27  51 SW10      30.07S
6HR MIN TEMP:  22; 6HR MAX TEMP:  44;

CHILLICOTHE      N/A     44  25  47 SW10G16   30.08R
6HR MIN TEMP:  26; 6HR MAX TEMP:  44;

KIRKSVILLE     SUNNY     43  26  51 SW15G21   30.05R
6HR MIN TEMP:  27; 6HR MAX TEMP:  43;


$$
MOZ066>068-077>081-088>096-101>105-251900-
...SOUTHWEST MISSOURI...

CITY           SKY/WX    TMP DP  RH WIND       PRES   REMARKS
SPRINGFIELD    SUNNY     47  27  45 S8G17     30.10S
6HR MIN TEMP:  29; 6HR MAX TEMP:  47;

JOPLIN         SUNNY     48  32  53 S10       30.11F
6HR MIN TEMP:  26; 6HR MAX TEMP:  48;

BRANSON        MOSUNNY   48  27  43 SE7       30.12F

$$
MOZ032>034-039>042-045>050-055>058-069>072-251900-
...CENTRAL MISSOURI...

CITY           SKY/WX    TMP DP  RH WIND       PRES   REMARKS
COLUMBIA       SUNNY     46  28  49 W8        30.10F
6HR MIN TEMP:  29; 6HR MAX TEMP:  46;

JEFFERSON CITY SUNNY     45  24  43 S6        30.11F
6HR MIN TEMP:  31; 6HR MAX TEMP:  46;

ROLLA          SUNNY     45  28  51 CALM      30.10F
6HR MIN TEMP:  28; 6HR MAX TEMP:  45;

SEDALIA        SUNNY     45  28  51 SW6       30.11F
6HR MIN TEMP:  30; 6HR MAX TEMP:  45;

WHITEMAN AFB   SUNNY     45  27  49 VRB5      30.07F
WARRENSBURG    SUNNY     45  30  57 SW8       30.10S
OSAGE BEACH    SUNNY     46  26  45 VRB3      30.11F

$$
MOZ051-052-059>065-251900-
...EAST CENTRAL MISSOURI...

CITY           SKY/WX    TMP DP  RH WIND       PRES   REMARKS
ST LOUIS INTL  MOSUNNY   47  24  40 W6        30.11F
6HR MIN TEMP:  34; 6HR MAX TEMP:  47;

SPIRIT OF STL  SUNNY     47  26  44 W8        30.11F
6HR MIN TEMP:  34; 6HR MAX TEMP:  47;

ST CHARLES       N/A     45  25  45 SW8       30.11S
6HR MIN TEMP:  32; 6HR MAX TEMP:  45;


$$
MOZ072>076-082>087-097>100-106>115-251900-
...SOUTH CENTRAL AND SOUTHEAST MISSOURI...

CITY           SKY/WX    TMP DP  RH WIND       PRES   REMARKS
CAPE GIRARDEAU FAIR      47  32  56 W5        30.13F
6HR MIN TEMP:  40; 6HR MAX TEMP:  47;

FARMINGTON     SUNNY     47  24  40 VRB3      30.11F
6HR MIN TEMP:  32; 6HR MAX TEMP:  47;

POPLAR BLUFF   FAIR      49  32  52 CALM      30.13F
6HR MIN TEMP:  39; 6HR MAX TEMP:  49;

WEST PLAINS    SUNNY     47  30  51 VRB6      30.12F
6HR MIN TEMP:  29; 6HR MAX TEMP:  47;


$$


USA.gov is the U.S. government's official web portal to all federal, state and local government web resources and services.